Date String (YYYY-MM-DD hh:mm:ss) UTC,Instrument flags,Ambient pressure (hPa),Sample flow (lpm),Bypass flow (lpm),Sample temperature (°C),Ambient temperature (°C),ASC tube jacket temperature (°C),LED temperature (°C),Box temperature (°C),Sample RH (%),Span deviation,Mass concentration (μg/m³),Mass concentration (μg/m³),Mass concentration (μg/m³)
DateTimeUTC,F1_M11,P_M11,Q1_M11,Q2_M11,T1_M11,T2_M11,T3_M11,T4_M11,T5_M11,U1_M11,ZSPAN_M11,X2_M11,X0_M11,X1_M11
2022-08-02 22:00:00,,0824.7,5.01,0.00,29.2,27.2,00.0,37.9,31.0,24.6,0000.0,0001.88,0006.10,0001.44
2022-08-02 22:01:00,,0824.7,5.00,0.00,29.2,27.1,00.0,37.9,31.0,24.4,0000.0,0001.86,0006.06,0001.44
2022-08-02 22:02:00,,0824.7,4.99,0.00,29.1,27.2,00.0,37.9,31.0,24.8,0000.0,0001.84,0005.88,0001.44
2022-08-02 22:03:00,,0824.5,5.01,0.00,29.1,27.4,00.0,37.9,31.0,24.5,0000.0,0001.80,0004.48,0001.44
2022-08-02 22:04:00,,0824.6,5.00,0.00,29.2,27.6,00.0,37.9,31.0,24.8,0000.0,0001.74,0004.21,0001.42
2022-08-02 22:05:00,,0824.8,5.00,0.00,29.2,27.8,00.0,37.9,31.1,25.2,0000.0,0001.73,0004.18,0001.41
2022-08-02 22:06:00,,0824.5,5.00,0.00,29.3,28.1,00.0,37.9,31.2,25.1,0000.0,0001.71,0004.20,0001.40
2022-08-02 22:07:00,,0824.5,5.00,0.00,29.3,28.0,00.0,38.0,31.2,24.6,0000.0,0001.69,0004.11,0001.40
2022-08-02 22:08:00,,0824.4,5.01,0.00,29.3,27.4,00.0,38.0,31.1,24.4,0000.0,0001.66,0003.85,0001.40
2022-08-02 22:09:00,,0824.5,4.99,0.00,29.2,27.1,00.0,37.9,31.0,24.8,0000.0,0001.63,0003.32,0001.38
2022-08-02 22:10:00,,0824.5,5.01,0.00,29.2,27.1,00.0,37.9,31.0,24.5,0000.0,0001.60,0002.34,0001.37
2022-08-02 22:11:00,,0824.9,4.99,0.00,29.2,27.3,00.0,37.9,31.0,24.9,0000.0,0001.61,0002.28,0001.38
2022-08-02 22:12:00,,0824.7,5.01,0.00,29.2,27.5,00.0,37.9,31.0,24.7,0000.0,0001.62,0002.39,0001.38
2022-08-02 22:13:00,,0824.6,4.99,0.00,29.2,27.7,00.0,37.9,31.1,25.0,0000.0,0001.66,0002.53,0001.37
2022-08-02 22:14:00,,0824.8,5.00,0.00,29.2,27.9,00.0,37.9,31.2,25.0,0000.0,0001.65,0002.37,0001.38
2022-08-02 22:15:00,,0824.9,5.00,0.00,29.3,28.1,00.0,38.0,31.2,24.9,0000.0,0001.65,0002.35,0001.38
2022-08-02 22:16:00,,0824.5,5.01,0.00,29.3,27.7,00.0,37.9,31.1,24.9,0000.0,0001.66,0002.40,0001.39
2022-08-02 22:17:00,,0824.5,4.99,0.00,29.2,27.1,00.0,37.9,31.0,25.0,0000.0,0001.64,0002.33,0001.40
2022-08-02 22:18:00,,0824.6,5.01,0.00,29.2,27.1,00.0,37.9,31.0,25.1,0000.0,0001.67,0002.86,0001.40
2022-08-02 22:19:00,,0824.6,4.99,0.00,29.2,27.2,00.0,37.9,30.9,25.3,0000.0,0001.69,0003.68,0001.41
2022-08-02 22:20:00,,0824.7,5.01,0.00,29.1,27.3,00.0,37.9,31.0,25.5,0000.0,0001.70,0003.73,0001.41
2022-08-02 22:21:00,,0824.7,5.00,0.00,29.2,27.6,00.0,37.9,31.0,25.5,0000.0,0001.68,0003.69,0001.42
2022-08-02 22:22:00,,0824.5,5.00,0.00,29.2,27.8,00.0,37.9,31.1,25.6,0000.0,0001.68,0003.67,0001.42
2022-08-02 22:23:00,,0824.7,5.00,0.00,29.2,28.0,00.0,37.9,31.2,24.9,0000.0,0001.67,0003.58,0001.43
2022-08-02 22:24:00,,0824.6,5.00,0.00,29.3,28.2,00.0,38.0,31.2,24.9,0000.0,0001.63,0003.42,0001.42
2022-08-02 22:25:00,,0824.6,5.00,0.00,29.3,27.8,00.0,38.0,31.2,24.9,0000.0,0001.65,0003.46,0001.43
2022-08-02 22:26:00,,0824.5,5.00,0.00,29.3,27.3,00.0,37.9,31.1,24.8,0000.0,0001.67,0003.51,0001.43
2022-08-02 22:27:00,,0824.7,4.99,0.00,29.2,27.1,00.0,37.9,31.0,24.9,0000.0,0001.67,0003.56,0001.42
2022-08-02 22:28:00,,0824.7,5.01,0.00,29.2,27.2,00.0,37.9,31.0,24.6,0000.0,0001.69,0003.61,0001.41
2022-08-02 22:29:00,,0824.6,4.99,0.00,29.2,27.4,00.0,37.9,31.0,25.0,0000.0,0001.69,0003.58,0001.41
2022-08-02 22:30:00,,0824.4,5.01,0.00,29.2,27.6,00.0,37.9,31.1,25.1,0000.0,0001.67,0002.34,0001.40
2022-08-02 22:31:00,,0824.5,5.00,0.00,29.2,27.8,00.0,37.9,31.1,24.9,0000.0,0001.70,0002.36,0001.40
2022-08-02 22:32:00,,0824.7,5.00,0.00,29.3,28.0,00.0,38.0,31.2,25.0,0000.0,0001.74,0002.51,0001.41
2022-08-02 22:33:00,,0824.5,5.01,0.00,29.3,28.1,00.0,38.0,31.3,24.8,0000.0,0001.75,0002.55,0001.41
2022-08-02 22:34:00,,0824.6,5.00,0.00,29.3,27.8,00.0,38.0,31.2,24.9,0000.0,0001.79,0002.62,0001.42
2022-08-02 22:35:00,,0824.7,5.00,0.00,29.3,27.1,00.0,38.0,31.0,25.1,0000.0,0001.83,0002.70,0001.43
2022-08-02 22:36:00,,0824.7,5.00,0.00,29.2,27.0,00.0,38.0,31.0,25.1,0000.0,0001.82,0002.68,0001.43
2022-08-02 22:37:00,,0824.6,5.01,0.00,29.2,27.1,00.0,37.9,31.0,25.4,0000.0,0001.80,0002.64,0001.43
2022-08-02 22:38:00,,0824.6,5.00,0.00,29.2,27.3,00.0,37.9,30.9,25.7,0000.0,0001.84,0002.68,0001.43
2022-08-02 22:39:00,,0824.6,5.01,0.00,29.2,27.5,00.0,37.9,31.0,25.8,0000.0,0001.91,0002.88,0001.44
2022-08-02 22:40:00,,0824.6,5.00,0.00,29.2,27.7,00.0,37.9,31.1,25.7,0000.0,0001.90,0002.87,0001.44
2022-08-02 22:41:00,,0824.6,5.01,0.00,29.3,27.9,00.0,38.0,31.2,25.7,0000.0,0001.94,0002.98,0001.45
2022-08-02 22:42:00,,0824.5,5.00,0.00,29.3,28.1,00.0,38.0,31.3,25.6,0000.0,0001.98,0003.19,0001.46
2022-08-02 22:43:00,,0824.6,5.00,0.00,29.3,27.8,00.0,38.0,31.2,25.5,0000.0,0001.98,0003.21,0001.46
2022-08-02 22:44:00,,0824.7,4.99,0.00,29.3,27.2,00.0,38.0,31.0,25.9,0000.0,0001.99,0003.23,0001.46
2022-08-02 22:45:00,,0824.6,5.01,0.00,29.2,27.0,00.0,38.0,31.0,26.1,0000.0,0001.99,0003.27,0001.46
2022-08-02 22:46:00,,0824.5,5.01,0.00,29.2,27.1,00.0,37.9,30.9,26.2,0000.0,0002.00,0003.29,0001.46
2022-08-02 22:47:00,,0824.4,5.00,0.00,29.1,27.2,00.0,37.9,30.9,26.4,0000.0,0002.05,0003.41,0001.47
2022-08-02 22:48:00,,0824.5,5.01,0.00,29.2,27.4,00.0,37.9,31.0,26.2,0000.0,0002.13,0004.19,0001.47
2022-08-02 22:49:00,,0824.4,4.99,0.00,29.2,27.7,00.0,37.9,31.1,26.4,0000.0,0002.16,0005.31,0001.46
2022-08-02 22:50:00,,0824.4,5.00,0.00,29.2,27.9,00.0,38.0,31.2,26.3,0000.0,0002.12,0005.55,0001.44
2022-08-02 22:51:00,,0824.4,5.00,0.00,29.3,28.1,00.0,38.0,31.2,26.0,0000.0,0002.15,0006.54,0001.41
2022-08-02 22:52:00,,0824.4,4.99,0.00,29.3,27.8,00.0,38.0,31.1,25.5,0000.0,0002.16,0006.67,0001.37
2022-08-02 22:53:00,,0824.4,5.00,0.00,29.2,27.1,00.0,38.0,31.0,25.6,0000.0,0002.11,0006.50,0001.34
2022-08-02 22:54:00,,0824.4,4.99,0.00,29.2,26.9,00.0,37.9,31.0,26.0,0000.0,0002.05,0006.34,0001.32
2022-08-02 22:55:00,,0824.4,5.00,0.00,29.2,27.0,00.0,37.9,30.9,26.2,0000.0,0002.04,0006.32,0001.30
2022-08-02 22:56:00,,0824.5,5.00,0.00,29.1,27.2,00.0,37.9,30.9,26.0,0000.0,0002.00,0006.49,0001.26
2022-08-02 22:57:00,,0824.4,5.00,0.00,29.1,27.4,00.0,37.9,30.9,25.6,0000.0,0001.95,0006.71,0001.21
2022-08-02 22:58:00,,0824.4,4.99,0.00,29.1,27.6,00.0,37.9,31.0,25.5,0000.0,0001.89,0007.15,0001.15
2022-08-02 22:59:00,,0824.4,5.01,0.00,29.2,27.8,00.0,37.9,31.1,25.0,0000.0,0001.77,0006.91,0001.10
